Regional Weather Roundup
Issued by NWS

Home | Current Version | Previous Version | Graphics & Text | Print | Product List | Glossary Off
Versions: 1 2 3 4 5 6 7 8 9 10 11 12 13 14 15 16 17 18 19 20 21 22 23 24 25 26 27 28 29 30 31 32 33 34 35 36 37 38 39 40 41 42 43 44 45 46 47 48 49 50

000
ASUS43 KFSD 282210
RWRSD

WEATHER ROUNDUP FOR SOUTH DAKOTA
NATIONAL WEATHER SERVICE SIOUX FALLS SD
500 PM CDT MON JUL 28 2014

NOTE: "FAIR" INDICATES FEW OR NO CLOUDS BELOW 12,000 FEET WITH NO
SIGNIFICANT WEATHER AND/OR OBSTRUCTIONS TO VISIBILITY.


SDZ001>005-009-010-012>017-282300-
NORTHWEST AND NORTH CENTRAL SOUTH DAKOTA

CITY           SKY/WX    TMP DP  RH WIND       PRES   REMARKS
BUFFALO          N/A     80  54  40 SE9       30.21F
FAITH            N/A     79  53  40 VRB6      30.27F
MOBRIDGE       MOSUNNY   76  52  43 N10       30.25F
$$

SDZ012>016-024>037-041>051-057-063-072>074-282300-
SOUTHWEST AND SOUTH CENTRAL SOUTH DAKOTA

CITY           SKY/WX    TMP DP  RH WIND       PRES   REMARKS
RAPID CTY ARPT SUNNY     80  55  42 E9        30.26F
PIERRE         SUNNY     80  51  36 NW8       30.24F
CUSTER         SUNNY     73  51  46 E13       30.38S
ELLSWORTH AFB  SUNNY     81  55  41 S7        30.26F
PHILIP         SUNNY     83  50  31 VRB7      30.23F
PINE RIDGE     SUNNY     83  56  39 E8        30.25F
WINNER         FAIR      82  48  30 N9        30.25F
$$

SDZ004>011-016>023-039-040-282300-
NORTHEAST SOUTH DAKOTA

CITY           SKY/WX    TMP DP  RH WIND       PRES   REMARKS
ABERDEEN       PTSUNNY   73  50  44 NE7       30.26F
WATERTOWN      CLOUDY    73  50  44 N13       30.26F
SISSETON         N/A     71  52  50 N7        30.24F
$$

SDZ017-020-022-023-036>040-048>070-282300-
SOUTHEAST SOUTH DAKOTA

CITY           SKY/WX    TMP DP  RH WIND       PRES   REMARKS
SIOUX FALLS    MOSUNNY   74  55  51 N10       30.23F
HURON          PTSUNNY   73  51  46 N8        30.25F
CHAMBERLAIN    SUNNY     76  50  39 N5        30.25F
MITCHELL       PTSUNNY   74  53  48 NE8       30.25F
YANKTON        MOSUNNY   73  54  49 NW8       30.24S
$$

ABBREVIATIONS USED IN REMARKS
   TC - TEMPERATURE IN CELSIUS
  WCI - WIND CHILL INDEX
   HX - HEAT INDEX
  VSB - VISIBILITY



USA.gov is the U.S. government's official web portal to all federal, state and local government web resources and services.